454  
ASUS41 KRLX 011910  
RWRRLX  
REGIONAL WEATHER ROUNDUP  
NATIONAL WEATHER SERVICE CHARLESTON WV  
200 PM EST MON MAR 01 2021  
 
NOTE: "FAIR" INDICATES FEW OR NO CLOUDS BELOW 12,000 FEET WITH NO  
SIGNIFICANT WEATHER AND/OR S TO VISIBILITY
.  
 
WVZ003-012000-  
NORTHERN PANHANDLE OF WEST VIRGINIA  
 
CITY SKY/WX TMP DP RH WIND PRES REMARKS
 
WHEELING MOSUNNY 41 19 41 W21G31 29.96R  

 
 
WVZ009-012000-  
NORTHWEST WEST VIRGINIA  
 
CITY SKY/WX TMP DP RH WIND PRES REMARKS
 
PARKERSBURG MOSUNNY 46 26 45 NW17G25 30.04R  

 
 
WVZ006-012000-  
WESTERN WEST VIRGINIA  
 
CITY SKY/WX TMP DP RH WIND PRES REMARKS
 
HUNTINGTON CLOUDY 45 29 53 W12G22 30.11R  

 
 
WVZ015-012000-  
WEST CENTRAL WEST VIRGINIA  
 
CITY SKY/WX TMP DP RH WIND PRES REMARKS
 
CHARLESTON CLOUDY 44 30 57 W10G23 30.07R  

 
 
WVZ509-031-039-012000-  
NORTH CENTRAL WEST VIRGINIA  
 
CITY SKY/WX TMP DP RH WIND PRES REMARKS
 
MORGANTOWN PTSUNNY 43 25 49 W9G23 29.93S  
CLARKSBURG PTSUNNY 44 27 51 W17G30 29.97R  
BUCKHANNON PTSUNNY 43 28 56 W12G22 29.98R  

 
 
WVZ515-516-025-034-042-507-012000-  
SOUTHERN WEST VIRGINIA  
 
CITY SKY/WX TMP DP RH WIND PRES REMARKS
 
BECKLEY CLOUDY 40 27 59 NW17G26 30.01R  
LOGAN FAIR 43 34 70 CALM 30.09R  
PINEVILLE N/A 47 35 63 MISG 30.09S  
BLUEFIELD CLOUDY 40 30 67 NW10G22 30.00R  
LEWISBURG SUNNY 43 27 52 NW9G22 29.96R  

 
 
WVZ525-526-012000-  
NORTHERN MOUNTAINS OF WEST VIRGINIA  
 
CITY SKY/WX TMP DP RH WIND PRES REMARKS
 
ELKINS PTSUNNY 42 26 53 W14G24 29.94R  

 
 
WVZ502-504-052-012000-  
EASTERN PANHANDLE OF WEST VIRGINIA  
 
CITY SKY/WX TMP DP RH WIND PRES REMARKS
 
PETERSBURG CLOUDY 49 29 44 NW20G25 29.88R  
CUMBERLAND CLOUDY 46 27 47 NW16G37 29.90S  
MARTINSBURG CLOUDY 47 28 47 NW16 29.79F  

 
 
OHZ075-083-KYZ101-012000-  
SOUTHEAST OHIO/NORTHEAST KENTUCKY  
 
CITY SKY/WX TMP DP RH WIND PRES REMARKS
 
ATHENS MOSUNNY 44 28 54 W17G24 30.09R  
JACKSON FAIR 45 30 57 NW8 30.12F  
ASHLAND CLOUDY 46 32 58 NW8 30.13R  

 
 
 
CLICK HERE TO GO TO PREVIOUS BULLETINS.

The Nexlab WV Page
The Nexlab OH Page
The Nexlab KY Page
The Nexlab VA Page Main Text Page